| time (UTC) | temp C | wind direction | speed KPH | gust KPH | rain 1hr cm | rain 24hr cm | rain mn cm | humidity % | barometer mb |
| 20260504050527 | 5 | 270 | 1.6 | 6.4 | 0.00 | 0.00 | 0.00 | 78 | 1015.2 |
| 20260504050025 | 5 | 270 | 1.6 | 8.0 | 0.00 | 0.00 | 0.00 | 78 | 1015.2 |
| 20260504045520 | 5 | 270 | 3.2 | 8.0 | 0.00 | 0.00 | 0.00 | 79 | 1015.3 |
| 20260504045017 | 5 | 270 | 1.6 | 4.8 | 0.00 | 0.00 | 0.00 | 79 | 1015.4 |
| 20260504044516 | 5 | 270 | 0.0 | 1.6 | 0.00 | 0.00 | 0.00 | 78 | 1015.3 |
| 20260504044032 | 5 | 270 | 0.0 | 1.6 | 0.00 | 0.00 | 0.00 | 78 | 1015.3 |
| 20260504043529 | 5 | 270 | 0.0 | 1.6 | 0.00 | 0.00 | 0.00 | 77 | 1015.3 |
| 20260504043026 | 5 | 270 | 0.0 | 0.0 | 0.00 | 0.00 | 0.00 | 76 | 1015.2 |
| 20260504042524 | 5 | 270 | 0.0 | 0.0 | 0.00 | 0.00 | 0.00 | 76 | 1015.3 |
| 20260504042021 | 5 | 270 | 0.0 | 1.6 | 0.00 | 0.00 | 0.00 | 75 | 1015.3 |
| 20260504041518 | 6 | 270 | 0.0 | 3.2 | 0.00 | 0.00 | 0.00 | 75 | 1015.2 |
| 20260504041014 | 6 | 270 | 0.0 | 3.2 | 0.00 | 0.00 | 0.00 | 75 | 1015.2 |
| 20260504040532 | 6 | 270 | 1.6 | 3.2 | 0.00 | 0.00 | 0.00 | 75 | 1015.1 |
| 20260504040029 | 6 | 270 | 0.0 | 3.2 | 0.00 | 0.00 | 0.00 | 75 | 1015.1 |
| 20260504035527 | 6 | 270 | 1.6 | 6.4 | 0.00 | 0.00 | 0.00 | 75 | 1015.2 |
| 20260504035025 | 6 | 270 | 0.0 | 6.4 | 0.00 | 0.00 | 0.00 | 75 | 1015.1 |
| 20260504034523 | 6 | 270 | 1.6 | 3.2 | 0.00 | 0.00 | 0.00 | 73 | 1014.9 |
| 20260504034020 | 6 | 270 | 1.6 | 3.2 | 0.00 | 0.00 | 0.00 | 71 | 1015.0 |
| 20260504033518 | 6 | 270 | 1.6 | 3.2 | 0.00 | 0.00 | 0.00 | 70 | 1014.9 |
| 20260504033037 | 7 | 270 | 1.6 | 3.2 | 0.00 | 0.00 | 0.00 | 67 | 1015.1 |
| 20260504032533 | 7 | 270 | 1.6 | 3.2 | 0.00 | 0.00 | 0.00 | 66 | 1015.0 |
| 20260504032031 | 7 | 270 | 1.6 | 6.4 | 0.00 | 0.00 | 0.00 | 66 | 1015.0 |
| 20260504031529 | 7 | 270 | 4.8 | 6.4 | 0.00 | 0.00 | 0.00 | 66 | 1015.0 |
| 20260504031027 | 7 | 270 | 0.0 | 3.2 | 0.00 | 0.00 | 0.00 | 66 | 1015.1 |
| 20260504030524 | 7 | 270 | 0.0 | 6.4 | 0.00 | 0.00 | 0.00 | 66 | 1015.1 |
| 20260504030022 | 7 | 270 | 0.0 | 8.0 | 0.00 | 0.00 | 0.00 | 66 | 1015.1 |
| 20260504025518 | 7 | 270 | 4.8 | 8.0 | 0.00 | 0.00 | 0.00 | 66 | 1015.0 |
| 20260504025016 | 7 | 270 | 0.0 | 8.0 | 0.00 | 0.00 | 0.00 | 66 | 1015.0 |
| 20260504024534 | 7 | 270 | 1.6 | 8.0 | 0.00 | 0.00 | 0.00 | 67 | 1014.9 |
| 20260504024032 | 7 | 270 | 3.2 | 8.0 | 0.00 | 0.00 | 0.00 | 67 | 1014.9 |
| 20260504023530 | 7 | 270 | 0.0 | 3.2 | 0.00 | 0.00 | 0.00 | 67 | 1014.9 |
| 20260504023048 | 8 | 270 | 0.0 | 3.2 | 0.00 | 0.00 | 0.00 | 66 | 1014.9 |
| 20260504022545 | 8 | 270 | 3.2 | 3.2 | 0.00 | 0.00 | 0.00 | 64 | 1014.9 |
| 20260504022021 | 8 | 270 | 0.0 | 3.2 | 0.00 | 0.00 | 0.00 | 63 | 1014.8 |
| 20260504021519 | 8 | 270 | 0.0 | 3.2 | 0.00 | 0.00 | 0.00 | 62 | 1014.8 |
| 20260504021017 | 8 | 270 | 0.0 | 3.2 | 0.00 | 0.00 | 0.00 | 62 | 1014.7 |
| 20260504020534 | 8 | 270 | 0.0 | 3.2 | 0.00 | 0.00 | 0.00 | 63 | 1014.8 |
| 20260504020032 | 8 | 270 | 0.0 | 1.6 | 0.00 | 0.00 | 0.00 | 61 | 1014.6 |
| 20260504015529 | 8 | 270 | 0.0 | 3.2 | 0.00 | 0.00 | 0.00 | 60 | 1014.6 |
| 20260504015028 | 8 | 270 | 0.0 | 3.2 | 0.00 | 0.00 | 0.00 | 60 | 1014.6 |
| 20260504014546 | 8 | 270 | 1.6 | 3.2 | 0.00 | 0.00 | 0.00 | 58 | 1014.6 |
| 20260504014022 | 9 | 270 | 0.0 | 0.0 | 0.00 | 0.00 | 0.00 | 56 | 1014.5 |
| 20260504013520 | 9 | 270 | 0.0 | 0.0 | 0.00 | 0.00 | 0.00 | 54 | 1014.5 |
| 20260504013018 | 10 | 270 | 0.0 | 3.2 | 0.00 | 0.00 | 0.00 | 53 | 1014.4 |
| 20260504012552 | 10 | 270 | 1.6 | 3.2 | 0.00 | 0.00 | 0.00 | 54 | 1014.3 |
| 20260504012029 | 10 | 270 | 0.0 | 0.0 | 0.00 | 0.00 | 0.00 | 52 | 1014.3 |
| 20260504011527 | 10 | 270 | 0.0 | 1.6 | 0.00 | 0.00 | 0.00 | 51 | 1014.2 |
| 20260504011023 | 10 | 270 | 0.0 | 3.2 | 0.00 | 0.00 | 0.00 | 50 | 1014.2 |
| 20260504010539 | 10 | 270 | 0.0 | 3.2 | 0.00 | 0.00 | 0.00 | 48 | 1014.2 |
| 20260504010015 | 11 | 270 | 1.6 | 3.2 | 0.00 | 0.00 | 0.00 | 47 | 1014.3 |
| 20260504005533 | 11 | 270 | 0.0 | 1.6 | 0.00 | 0.00 | 0.00 | 45 | 1014.3 |
| 20260504005029 | 11 | 270 | 0.0 | 3.2 | 0.00 | 0.00 | 0.00 | 45 | 1014.2 |
| 20260504004527 | 11 | 270 | 0.0 | 3.2 | 0.00 | 0.00 | 0.00 | 44 | 1014.2 |
| 20260504004024 | 12 | 270 | 0.0 | 3.2 | 0.00 | 0.00 | 0.00 | 44 | 1014.2 |
| 20260504003522 | 12 | 270 | 1.6 | 8.0 | 0.00 | 0.00 | 0.00 | 43 | 1014.1 |
| 20260504003020 | 12 | 270 | 0.0 | 8.0 | 0.00 | 0.00 | 0.00 | 42 | 1014.1 |
| 20260504002518 | 12 | 270 | 0.0 | 8.0 | 0.00 | 0.00 | 0.00 | 43 | 1014.0 |
| 20260504002037 | 13 | 270 | 1.6 | 8.0 | 0.00 | 0.00 | 0.00 | 41 | 1014.0 |
| 20260504001534 | 13 | 270 | 1.6 | 11.3 | 0.00 | 0.00 | 0.00 | 40 | 1013.9 |
| 20260504001031 | 13 | 270 | 6.4 | 11.3 | 0.00 | 0.00 | 0.00 | 39 | 1014.0 |
| 20260504000528 | 13 | 270 | 4.8 | 9.7 | 0.00 | 0.00 | 0.00 | 39 | 1013.8 |
| 20260504000025 | 13 | 270 | 1.6 | 11.3 | 0.00 | 0.00 | 0.00 | 39 | 1013.9 |
| 20260503235544 | 14 | 270 | 6.4 | 11.3 | 0.00 | 0.00 | 0.00 | 37 | 1013.9 |
| 20260503235020 | 14 | 271 | 4.8 | 11.3 | 0.00 | 0.00 | 0.00 | 38 | 1013.8 |
| 20260503234518 | 14 | 271 | 8.0 | 12.9 | 0.00 | 0.00 | 0.00 | 37 | 1013.7 |
| 20260503234016 | 15 | 278 | 6.4 | 16.1 | 0.00 | 0.00 | 0.00 | 36 | 1013.7 |
| 20260503233534 | 15 | 278 | 6.4 | 19.3 | 0.00 | 0.00 | 0.00 | 36 | 1013.6 |
| 20260503233032 | 15 | 244 | 11.3 | 19.3 | 0.00 | 0.00 | 0.00 | 35 | 1013.5 |
| 20260503232529 | 15 | 310 | 8.0 | 19.3 | 0.00 | 0.00 | 0.00 | 35 | 1013.6 |
| 20260503232026 | 15 | 277 | 4.8 | 17.7 | 0.00 | 0.00 | 0.00 | 36 | 1013.6 |
| 20260503231545 | 15 | 265 | 9.7 | 16.1 | 0.00 | 0.00 | 0.00 | 35 | 1013.5 |
| 20260503231042 | 15 | 196 | 9.7 | 16.1 | 0.00 | 0.00 | 0.00 | 35 | 1013.4 |
| 20260503230549 | 15 | 264 | 9.7 | 17.7 | 0.00 | 0.00 | 0.00 | 34 | 1013.3 |
| 20260503230020 | 15 | 294 | 12.9 | 17.7 | 0.00 | 0.00 | 0.00 | 33 | 1013.3 |
| 20260503225554 | 15 | 256 | 9.7 | 20.9 | 0.00 | 0.00 | 0.00 | 35 | 1013.3 |
| 20260503225030 | 16 | 269 | 9.7 | 24.1 | 0.00 | 0.00 | 0.00 | 35 | 1013.2 |
| 20260503224527 | 16 | 315 | 11.3 | 24.1 | 0.00 | 0.00 | 0.00 | 35 | 1013.2 |
| 20260503224046 | 16 | 267 | 9.7 | 20.9 | 0.00 | 0.00 | 0.00 | 35 | 1013.3 |
| 20260503223523 | 16 | 256 | 14.5 | 25.7 | 0.00 | 0.00 | 0.00 | 34 | 1013.3 |
| 20260503223019 | 16 | 299 | 11.3 | 29.0 | 0.00 | 0.00 | 0.00 | 34 | 1013.3 |
| 20260503222517 | 16 | 271 | 17.7 | 30.6 | 0.00 | 0.00 | 0.00 | 33 | 1013.4 |
| 20260503222015 | 16 | 248 | 16.1 | 30.6 | 0.00 | 0.00 | 0.00 | 33 | 1013.3 |
| 20260503221533 | 16 | 227 | 12.9 | 29.0 | 0.00 | 0.00 | 0.00 | 34 | 1013.5 |
| 20260503221031 | 16 | 290 | 12.9 | 24.1 | 0.00 | 0.00 | 0.00 | 35 | 1013.5 |
| 20260503220528 | 16 | 299 | 12.9 | 32.2 | 0.00 | 0.00 | 0.00 | 33 | 1013.5 |
| 20260503220026 | 16 | 285 | 17.7 | 38.6 | 0.00 | 0.00 | 0.00 | 33 | 1013.6 |
| 20260503215523 | 16 | 258 | 19.3 | 38.6 | 0.00 | 0.00 | 0.00 | 34 | 1013.6 |
| 20260503215019 | 16 | 290 | 9.7 | 29.0 | 0.00 | 0.00 | 0.00 | 33 | 1013.7 |
| 20260503214516 | 16 | 312 | 14.5 | 29.0 | 0.00 | 0.00 | 0.00 | 35 | 1013.7 |
| 20260503214033 | 15 | 296 | 14.5 | 25.7 | 0.00 | 0.00 | 0.00 | 34 | 1013.4 |
| 20260503213530 | 16 | 261 | 17.7 | 30.6 | 0.00 | 0.00 | 0.00 | 35 | 1013.6 |
| 20260503213047 | 16 | 300 | 19.3 | 38.6 | 0.00 | 0.00 | 0.00 | 33 | 1013.7 |
| 20260503212523 | 16 | 272 | 16.1 | 38.6 | 0.00 | 0.00 | 0.00 | 34 | 1013.5 |
| 20260503212021 | 16 | 229 | 12.9 | 35.4 | 0.00 | 0.00 | 0.00 | 35 | 1013.5 |
| 20260503211519 | 16 | 242 | 9.7 | 24.1 | 0.00 | 0.00 | 0.00 | 35 | 1013.5 |
| 20260503211016 | 15 | 300 | 11.3 | 33.8 | 0.00 | 0.00 | 0.00 | 36 | 1013.5 |
| 20260503210532 | 16 | 335 | 17.7 | 35.4 | 0.00 | 0.00 | 0.00 | 33 | 1013.5 |
| 20260503210030 | 16 | 300 | 17.7 | 30.6 | 0.00 | 0.00 | 0.00 | 36 | 1013.5 |
| 20260503205547 | 15 | 327 | 11.3 | 20.9 | 0.00 | 0.00 | 0.00 | 36 | 1013.5 |
| 20260503205023 | 15 | 306 | 11.3 | 29.0 | 0.00 | 0.00 | 0.00 | 35 | 1013.6 |
| 20260503204521 | 15 | 309 | 14.5 | 32.2 | 0.00 | 0.00 | 0.00 | 36 | 1013.7 |
| 20260503204017 | 16 | 339 | 12.9 | 32.2 | 0.00 | 0.00 | 0.00 | 34 | 1013.7 |
| 20260503203536 | 16 | 266 | 12.9 | 32.2 | 0.00 | 0.00 | 0.00 | 35 | 1013.7 |
| 20260503203034 | 16 | 251 | 14.5 | 24.1 | 0.00 | 0.00 | 0.00 | 33 | 1013.8 |
| 20260503202531 | 16 | 335 | 9.7 | 25.7 | 0.00 | 0.00 | 0.00 | 36 | 1013.8 |
| 20260503202028 | 16 | 348 | 12.9 | 25.7 | 0.00 | 0.00 | 0.00 | 35 | 1013.9 |
| 20260503201547 | 16 | 303 | 11.3 | 32.2 | 0.00 | 0.00 | 0.00 | 36 | 1014.0 |
| 20260503201022 | 16 | 293 | 14.5 | 30.6 | 0.00 | 0.00 | 0.00 | 38 | 1014.0 |
| 20260503200519 | 15 | 329 | 17.7 | 30.6 | 0.00 | 0.00 | 0.00 | 37 | 1014.1 |
| 20260503200017 | 15 | 299 | 16.1 | 35.4 | 0.00 | 0.00 | 0.00 | 35 | 1014.1 |
| 20260503195514 | 16 | 318 | 14.5 | 37.0 | 0.00 | 0.00 | 0.00 | 35 | 1014.2 |
| 20260503195032 | 16 | 318 | 20.9 | 37.0 | 0.00 | 0.00 | 0.00 | 36 | 1014.2 |
| 20260503194530 | 15 | 257 | 9.7 | 32.2 | 0.00 | 0.00 | 0.00 | 35 | 1014.3 |
| 20260503194027 | 16 | 335 | 17.7 | 32.2 | 0.00 | 0.00 | 0.00 | 34 | 1014.3 |
| 20260503193525 | 15 | 283 | 8.0 | 30.6 | 0.00 | 0.00 | 0.00 | 37 | 1014.4 |
| 20260503193044 | 15 | 298 | 14.5 | 33.8 | 0.00 | 0.00 | 0.00 | 35 | 1014.6 |
| 20260503192520 | 15 | 316 | 20.9 | 41.8 | 0.00 | 0.00 | 0.00 | 35 | 1014.6 |
| 20260503192018 | 15 | 272 | 20.9 | 41.8 | 0.00 | 0.00 | 0.00 | 33 | 1014.5 |
| 20260503191553 | 16 | 345 | 17.7 | 32.2 | 0.00 | 0.00 | 0.00 | 34 | 1014.7 |
| 20260503191031 | 16 | 293 | 16.1 | 30.6 | 0.00 | 0.00 | 0.00 | 37 | 1014.7 |
| 20260503190529 | 16 | 357 | 12.9 | 32.2 | 0.00 | 0.00 | 0.00 | 37 | 1014.7 |
| 20260503190027 | 15 | 273 | 17.7 | 32.2 | 0.00 | 0.00 | 0.00 | 35 | 1014.7 |
| 20260503185524 | 16 | 294 | 16.1 | 35.4 | 0.00 | 0.00 | 0.00 | 36 | 1014.8 |
| 20260503185023 | 16 | 343 | 19.3 | 35.4 | 0.00 | 0.00 | 0.00 | 35 | 1014.9 |
| 20260503184522 | 15 | 325 | 14.5 | 33.8 | 0.00 | 0.00 | 0.00 | 34 | 1014.9 |
| 20260503184018 | 16 | 283 | 11.3 | 33.8 | 0.00 | 0.00 | 0.00 | 37 | 1015.1 |
| 20260503183516 | 15 | 324 | 20.9 | 32.2 | 0.00 | 0.00 | 0.00 | 35 | 1015.1 |
| 20260503183034 | 15 | 309 | 11.3 | 29.0 | 0.00 | 0.00 | 0.00 | 35 | 1015.2 |
| 20260503182531 | 15 | 264 | 11.3 | 40.2 | 0.00 | 0.00 | 0.00 | 34 | 1015.2 |
| 20260503182027 | 15 | 334 | 16.1 | 37.0 | 0.00 | 0.00 | 0.00 | 38 | 1015.1 |
| 20260503181546 | 15 | 357 | 12.9 | 32.2 | 0.00 | 0.00 | 0.00 | 35 | 1015.2 |
| 20260503181033 | 15 | 270 | 14.5 | 32.2 | 0.00 | 0.00 | 0.00 | 32 | 1015.3 |
| 20260503180532 | 15 | 249 | 14.5 | 29.0 | 0.00 | 0.00 | 0.00 | 35 | 1015.3 |
| 20260503180049 | 15 | 293 | 17.7 | 29.0 | 0.00 | 0.00 | 0.00 | 37 | 1015.2 |
| 20260503175527 | 14 | 248 | 14.5 | 35.4 | 0.00 | 0.00 | 0.00 | 37 | 1015.3 |
| 20260503175046 | 15 | 281 | 19.3 | 35.4 | 0.00 | 0.00 | 0.00 | 35 | 1015.5 |
| 20260503174523 | 15 | 358 | 12.9 | 32.2 | 0.00 | 0.00 | 0.00 | 37 | 1015.5 |
| 20260503174041 | 14 | 302 | 17.7 | 37.0 | 0.00 | 0.00 | 0.00 | 35 | 1015.5 |
| 20260503173517 | 15 | 262 | 17.7 | 37.0 | 0.00 | 0.00 | 0.00 | 37 | 1015.6 |
| 20260503173015 | 15 | 306 | 12.9 | 37.0 | 0.00 | 0.00 | 0.00 | 40 | 1015.6 |
| 20260503172533 | 14 | 285 | 9.7 | 32.2 | 0.00 | 0.00 | 0.00 | 44 | 1015.7 |
| 20260503172052 | 14 | 321 | 16.1 | 29.0 | 0.00 | 0.00 | 0.00 | 40 | 1015.6 |
| 20260503171529 | 14 | 261 | 17.7 | 35.4 | 0.00 | 0.00 | 0.00 | 36 | 1015.7 |
| 20260503171026 | 13 | 286 | 20.9 | 35.4 | 0.00 | 0.00 | 0.00 | 37 | 1015.9 |
| 20260503170545 | 13 | 264 | 14.5 | 33.8 | 0.00 | 0.00 | 0.00 | 40 | 1015.8 |
| 20260503150521 | 11 | 267 | 14.5 | 35.4 | 0.00 | 0.00 | 0.00 | 49 | 1017.1 |
| 20260503131027 | 7 | 285 | 17.7 | 40.2 | 0.00 | 0.00 | 0.00 | 56 | 1017.2 |
| 20260503130525 | 8 | 307 | 12.9 | 22.5 | 0.00 | 0.00 | 0.00 | 59 | 1017.2 |
| 20260503110546 | 3 | 286 | 8.0 | 11.3 | 0.00 | 0.00 | 0.00 | 72 | 1016.6 |
| 20260503081540 | 3 | 285 | 1.6 | 8.0 | 0.00 | 0.00 | 0.00 | 73 | 1015.1 |
| 20260503081016 | 3 | 285 | 3.2 | 8.0 | 0.00 | 0.00 | 0.00 | 73 | 1015.1 |
| 20260503080514 | 3 | 285 | 3.2 | 8.0 | 0.00 | 0.00 | 0.00 | 73 | 1015.1 |
| 20260503072516 | 4 | 285 | 1.6 | 9.7 | 0.00 | 0.00 | 0.00 | 71 | 1014.8 |